Falfurrias, TX

8:57 PM CST on November 22, 2019 (GMT -0600)
Falfurrias

Weather History for KBKS - May, 2019

Change the Weather History Date:

Tuesday, May 21, 2019

  Actual Average (WUND) Record (WUND)
Temperature  
Mean Temperature 89 °F -  
Max Temperature 97 °F - - (-1)
Min Temperature 81 °F - - (-1)
Cooling Degree Days 24    
Growing Degree Days 39 (Base 50)    
Moisture  
Dew Point 73 °F    
Average Humidity 64    
Maximum Humidity 85    
Minimum Humidity 40    
Precipitation  
Precipitation 0.00 in - - ()
Sea Level Pressure  
Sea Level Pressure 29.60 in    
Wind  
Wind Speed 13 mph (SE)    
Max Wind Speed 26 mph    
Max Gust Speed 33 mph    
Visibility 8 miles    
Events      
Averages and records for this station are not official NWS values.
T = Trace of Precipitation, MM = Missing Value Source: NWS Daily Summary

Daily Weather History Graph

Daily Weather History Graph

Search for Another Location

Airport or City:

Astronomy

May. 21, 2019 Rise Set
Actual Time 6:41 AM CDT 8:17 PM CDT
Civil Twilight 6:15 AM CDT 8:42 PM CDT
Nautical Twilight 5:45 AM CDT 9:13 PM CDT
Astronomical Twilight 5:13 AM CDT 9:45 PM CDT
Moon 11:10 PM CDT (5/21) 9:02 AM CDT (5/21)
Length of Visible Light 14h 26m
Length of Day
13h 35m
Waning Gibbous, 91% of the Moon is Illuminated
May 21
Waning Gibbous
May 26
Last Quarter
Jun 3
New
Jun 10
First Quarter
Jun 17
Full

Hourly Weather History & Observations

Time (CDT) Temp. Heat Index Dew Point Humidity Pressure Visibility Wind Dir Wind Speed Gust Speed Precip Events Conditions
12:15 AM 81.7 °F 87.6 °F 74.3 °F 78% 29.62 in 7.0 mi SE 12.7 mph 23.0 mph N/A   Scattered Clouds
12:35 AM 81.5 °F 87.4 °F 74.3 °F 79% 29.61 in 7.0 mi SSE 13.8 mph - N/A   Scattered Clouds
12:55 AM 81.7 °F 87.6 °F 74.3 °F 78% 29.61 in 7.0 mi SSE 12.7 mph 20.7 mph N/A   Mostly Cloudy
1:15 AM 81.9 °F 87.7 °F 73.9 °F 77% 29.60 in 7.0 mi SSE 16.1 mph 20.7 mph N/A   Mostly Cloudy
1:35 AM 81.9 °F 87.5 °F 73.6 °F 76% 29.60 in 7.0 mi SSE 18.4 mph 23.0 mph N/A   Mostly Cloudy
1:55 AM 81.9 °F 87.3 °F 73.2 °F 75% 29.60 in 7.0 mi SSE 18.4 mph 26.5 mph N/A   Mostly Cloudy
2:15 AM 82.4 °F 87.9 °F 72.9 °F 73% 29.60 in 10.0 mi SSE 15.0 mph 21.9 mph N/A   Overcast
2:35 AM 82.4 °F 87.4 °F 72.3 °F 71% 29.59 in 10.0 mi SSE 26.5 mph 33.4 mph N/A   Mostly Cloudy
2:55 AM 82.4 °F 87.7 °F 72.5 °F 72% 29.59 in 10.0 mi SSE 18.4 mph 28.8 mph N/A   Mostly Cloudy
3:15 AM 82.2 °F 87.3 °F 72.5 °F 72% 29.57 in 7.0 mi SSE 21.9 mph 27.6 mph N/A   Mostly Cloudy
3:35 AM 82.0 °F 87.2 °F 72.5 °F 73% 29.56 in 10.0 mi SSE 20.7 mph 32.2 mph N/A   Scattered Clouds
3:55 AM 81.9 °F 87.0 °F 72.7 °F 74% 29.56 in 7.0 mi SSE 20.7 mph 29.9 mph N/A   Scattered Clouds
4:15 AM 81.7 °F 86.7 °F 72.7 °F 74% 29.55 in 7.0 mi SSE 25.3 mph 29.9 mph N/A   Scattered Clouds
4:35 AM 81.5 °F 86.5 °F 73.0 °F 75% 29.55 in 7.0 mi SSE 20.7 mph 33.4 mph N/A   Scattered Clouds
4:55 AM 81.5 °F 86.7 °F 73.4 °F 76% 29.54 in 7.0 mi SSE 17.3 mph 27.6 mph N/A   Scattered Clouds
5:15 AM 81.5 °F 86.7 °F 73.4 °F 76% 29.55 in 7.0 mi SSE 21.9 mph 28.8 mph N/A   Scattered Clouds
5:35 AM 81.5 °F 86.7 °F 73.4 °F 76% 29.54 in 7.0 mi SSE 18.4 mph 27.6 mph N/A   Mostly Cloudy
5:55 AM 81.5 °F 86.7 °F 73.4 °F 76% 29.54 in 7.0 mi SSE 23.0 mph 27.6 mph N/A   Mostly Cloudy
6:15 AM 81.5 °F 86.7 °F 73.4 °F 76% 29.54 in 7.0 mi SSE 18.4 mph 26.5 mph N/A   Scattered Clouds
6:35 AM 81.5 °F 86.7 °F 73.4 °F 76% 29.54 in 7.0 mi SSE 17.3 mph 27.6 mph N/A   Scattered Clouds
6:55 AM 81.1 °F 86.2 °F 73.4 °F 77% 29.55 in 7.0 mi SSE 15.0 mph 26.5 mph N/A   Scattered Clouds
7:15 AM 81.1 °F 86.2 °F 73.4 °F 77% 29.55 in 7.0 mi SSE 17.3 mph 25.3 mph N/A   Scattered Clouds
7:35 AM 81.5 °F 86.7 °F 73.4 °F 76% 29.57 in 7.0 mi SSE 15.0 mph 26.5 mph N/A   Clear
7:55 AM 82.2 °F 88.0 °F 73.4 °F 75% 29.58 in 5.0 mi SSE 16.1 mph 21.9 mph N/A   Clear
8:15 AM 82.9 °F 89.1 °F 73.4 °F 73% 29.59 in 7.0 mi South 17.3 mph 24.2 mph N/A   Clear
8:35 AM 84.2 °F 90.9 °F 73.4 °F 70% 29.59 in 7.0 mi South 15.0 mph 25.3 mph N/A   Scattered Clouds
8:55 AM 84.6 °F 91.0 °F 73.0 °F 68% 29.60 in 7.0 mi South 13.8 mph 23.0 mph N/A   Scattered Clouds
9:35 AM 85.6 °F 92.2 °F 72.5 °F 65% 29.61 in 7.0 mi South 18.4 mph 25.3 mph N/A   Clear
9:55 AM 86.4 °F 93.0 °F 72.5 °F 63% 29.62 in 7.0 mi South 18.4 mph 26.5 mph N/A   Clear
10:15 AM 87.4 °F 94.0 °F 71.8 °F 60% 29.63 in 7.0 mi South 17.3 mph 23.0 mph N/A   Clear
10:35 AM 88.9 °F 95.1 °F 71.6 °F 56% 29.64 in 10.0 mi South 13.8 mph 18.4 mph N/A   Clear
10:55 AM 90.0 °F 96.4 °F 71.2 °F 54% 29.67 in 10.0 mi SSW 12.7 mph 21.9 mph N/A   Clear
11:15 AM 89.8 °F 95.6 °F 70.7 °F 53% 29.67 in 7.0 mi SSW 11.5 mph 16.1 mph N/A   Scattered Clouds
11:35 AM 90.5 °F 97.5 °F 71.6 °F 54% 29.67 in 10.0 mi SW 9.2 mph - N/A   Mostly Cloudy
11:55 AM 90.9 °F 96.7 °F 70.7 °F 51% 29.67 in 7.0 mi SW 9.2 mph - N/A   Mostly Cloudy
12:15 PM 90.9 °F 96.7 °F 70.7 °F 51% 29.66 in 10.0 mi WSW 8.1 mph - N/A   Mostly Cloudy
12:35 PM 91.4 °F 96.8 °F 70.0 °F 49% 29.66 in 10.0 mi SW 8.1 mph - N/A   Scattered Clouds
12:55 PM 91.9 °F 97.4 °F 69.8 °F 48% 29.66 in 10.0 mi South 5.8 mph - N/A   Scattered Clouds
1:15 PM 91.4 °F 96.8 °F 70.0 °F 49% 29.65 in 10.0 mi Calm Calm - N/A   Mostly Cloudy
1:35 PM 93.2 °F 100.5 °F 71.4 °F 49% 29.64 in 10.0 mi NNE 3.5 mph - N/A   Mostly Cloudy
1:55 PM 92.8 °F 98.6 °F 70.0 °F 47% 29.64 in 10.0 mi WNW 4.6 mph - N/A   Scattered Clouds
2:15 PM 93.7 °F 99.9 °F 70.0 °F 46% 29.62 in 10.0 mi Calm Calm - N/A   Clear
2:35 PM 93.2 °F 99.4 °F 70.0 °F 47% 29.62 in 10.0 mi Calm Calm - N/A   Scattered Clouds
2:55 PM 93.6 °F 99.5 °F 69.8 °F 46% 29.62 in 10.0 mi Calm Calm - N/A   Mostly Cloudy
3:15 PM 95.7 °F 101.5 °F 69.4 °F 42% 29.61 in 10.0 mi Calm Calm - N/A   Scattered Clouds
3:35 PM 97.0 °F 104.1 °F 70.3 °F 42% 29.60 in 10.0 mi NE 3.5 mph - N/A   Scattered Clouds
3:55 PM 95.4 °F 100.8 °F 69.1 °F 42% 29.59 in 7.0 mi NE 4.6 mph - N/A   Scattered Clouds
4:15 PM 96.1 °F 102.3 °F 69.6 °F 42% 29.59 in 10.0 mi Calm Calm - N/A   Clear
4:35 PM 97.0 °F 103.5 °F 69.4 °F 41% 29.58 in 10.0 mi NNE 5.8 mph - N/A   Clear
4:55 PM 95.9 °F 101.3 °F 68.9 °F 41% 29.58 in 10.0 mi Calm Calm - N/A   Clear
5:15 PM 97.5 °F 103.9 °F 69.4 °F 40% 29.58 in 10.0 mi NNW 6.9 mph - N/A   Clear
5:35 PM 96.6 °F 102.7 °F 69.1 °F 41% 29.57 in 7.0 mi NE 4.6 mph - N/A   Clear
5:55 PM 96.8 °F 102.5 °F 69.1 °F 40% 29.57 in 10.0 mi NNE 6.9 mph - N/A   Clear
6:15 PM 96.3 °F 102.6 °F 69.4 °F 42% 29.57 in 10.0 mi NE 4.6 mph - N/A   Clear
6:35 PM 95.9 °F 103.2 °F 70.7 °F 44% 29.57 in 10.0 mi NE 5.8 mph - N/A   Clear
6:55 PM 94.6 °F 105.1 °F 74.1 °F 51% 29.57 in 10.0 mi NE 6.9 mph - N/A   Clear
7:15 PM 93.2 °F 105.7 °F 76.1 °F 57% 29.57 in 0.5 mi East 8.1 mph - N/A   Unknown
7:35 PM 91.4 °F 103.8 °F 76.5 °F 61% 29.57 in - East 9.2 mph - N/A   Unknown
7:55 PM 90.1 °F 102.4 °F 76.3 °F 64% 29.58 in 4.0 mi East 9.2 mph - N/A   Clear
8:15 PM 88.7 °F 100.4 °F 76.5 °F 67% 29.59 in 7.0 mi East 10.4 mph 16.1 mph N/A   Scattered Clouds
8:35 PM 86.7 °F 97.3 °F 76.5 °F 71% 29.60 in 7.0 mi ESE 10.4 mph - N/A   Scattered Clouds
8:55 PM 85.5 °F 95.4 °F 76.5 °F 74% 29.61 in 7.0 mi ESE 4.6 mph - N/A   Clear
9:15 PM 85.1 °F 94.9 °F 76.3 °F 75% 29.63 in 5.0 mi ESE 9.2 mph - N/A   Clear
9:35 PM 84.4 °F 93.9 °F 76.3 °F 77% 29.64 in 7.0 mi SE 12.7 mph 18.4 mph N/A   Clear
9:55 PM 83.5 °F 92.2 °F 76.3 °F 79% 29.65 in 7.0 mi SE 8.1 mph - N/A   Clear
10:15 PM 83.1 °F 91.6 °F 76.3 °F 80% 29.66 in 7.0 mi SE 9.2 mph - N/A   Clear
10:35 PM 82.8 °F 90.7 °F 76.1 °F 80% 29.66 in 7.0 mi SE 11.5 mph - N/A   Clear
10:55 PM 82.4 °F 90.1 °F 76.1 °F 81% 29.67 in 7.0 mi SE 10.4 mph - N/A   Clear
11:15 PM 81.7 °F 88.7 °F 76.1 °F 83% 29.68 in 7.0 mi SE 8.1 mph - N/A   Clear
11:35 PM 81.5 °F 88.5 °F 76.1 °F 84% 29.68 in 7.0 mi SE 10.4 mph - N/A   Clear
11:55 PM 81.3 °F 88.3 °F 76.3 °F 85% 29.68 in 5.0 mi SE 5.8 mph - N/A   Clear